Location: Kitt Peak
(31.9639°N, 111.5992°W)
Time: 20:48:53
(UTC-07:00)

XW-2C - Visible Passes

Search period start: 18 September 2024 00:00
Search period end: 28 September 2024 00:00
Orbit: 408 x 413 km, 97.5° (Epoch: 18 September)

Date Brightness Start Highest point End Pass type
(mag) Time Alt. Az. Time Alt. Az. Time Alt. Az.
18 Sep ? 18:51:12 10° SSE 18:54:16 56° ENE 18:57:22 10° N visible
19 Sep ? 19:36:39 10° SSW 19:39:13 23° W 19:41:49 10° NW visible
20 Sep ? 18:49:06 10° SSE 18:52:09 50° ENE 18:55:13 10° N visible
21 Sep ? 19:34:13 10° SSW 19:36:53 25° W 19:39:34 10° NW visible
22 Sep ? 18:46:38 10° SSE 18:49:39 44° ENE 18:52:40 10° N visible
23 Sep ? 19:31:23 10° SSW 19:34:09 29° W 19:36:57 10° NW visible
24 Sep ? 18:43:48 10° SE 18:46:45 39° ENE 18:49:42 10° N visible
25 Sep ? 19:28:10 10° SSW 19:31:01 32° W 19:33:55 10° NNW visible
26 Sep ? 18:40:35 10° SE 18:43:27 33° ENE 18:46:20 10° N visible
27 Sep ? 19:24:35 10° S 19:27:31 38° W 19:30:29 10° NNW visible
